TimeEST,TemperatureF,Dew PointF,Humidity,Sea Level PressureIn,VisibilityMPH,Wind Direction,Wind SpeedMPH,Gust SpeedMPH,PrecipitationIn,Events,Conditions,WindDirDegrees,DateUTC
12:15 AM,24.1,19.4,82,30.43,10.0,Calm,Calm,-,N/A,,Clear,0,2013-11-25 05:15:00
12:35 AM,23.7,18.5,80,30.43,10.0,Calm,Calm,-,N/A,,Clear,0,2013-11-25 05:35:00
12:55 AM,23.4,19.4,85,30.43,10.0,Calm,Calm,-,N/A,,Clear,0,2013-11-25 05:55:00
1:15 AM,23.4,18.9,83,30.43,10.0,Calm,Calm,-,N/A,,Clear,0,2013-11-25 06:15:00
1:35 AM,22.5,18.3,84,30.43,10.0,Calm,Calm,-,N/A,,Clear,0,2013-11-25 06:35:00
1:55 AM,22.5,18.7,85,30.43,10.0,Calm,Calm,-,N/A,,Clear,0,2013-11-25 06:55:00
2:15 AM,23.4,19.2,84,30.43,10.0,Calm,Calm,-,N/A,,Clear,0,2013-11-25 07:15:00
2:35 AM,23.0,19.4,86,30.42,10.0,Calm,Calm,-,N/A,,Clear,0,2013-11-25 07:35:00
2:55 AM,22.8,20.1,89,30.43,10.0,Calm,Calm,-,N/A,,Clear,0,2013-11-25 07:55:00
3:15 AM,23.0,20.1,89,30.42,10.0,Calm,Calm,-,N/A,,Clear,0,2013-11-25 08:15:00
3:35 AM,23.9,20.1,85,30.42,10.0,Calm,Calm,-,N/A,,Clear,0,2013-11-25 08:35:00
3:55 AM,23.5,20.1,87,30.43,10.0,Calm,Calm,-,N/A,,Clear,0,2013-11-25 08:55:00
4:15 AM,23.7,20.1,86,30.43,10.0,Calm,Calm,-,N/A,,Clear,0,2013-11-25 09:15:00
4:35 AM,23.2,19.4,85,30.42,10.0,Calm,Calm,-,N/A,,Clear,0,2013-11-25 09:35:00
4:55 AM,23.0,20.1,89,30.42,10.0,Calm,Calm,-,N/A,,Clear,0,2013-11-25 09:55:00
5:15 AM,23.9,19.8,84,30.42,10.0,Calm,Calm,-,N/A,,Clear,0,2013-11-25 10:15:00
5:35 AM,23.7,20.3,87,30.41,10.0,Calm,Calm,-,N/A,,Clear,0,2013-11-25 10:35:00
5:55 AM,23.2,20.3,89,30.41,10.0,Calm,Calm,-,N/A,,Clear,0,2013-11-25 10:55:00
6:15 AM,23.4,20.3,88,30.40,10.0,Calm,Calm,-,N/A,,Clear,0,2013-11-25 11:15:00
6:35 AM,23.0,19.4,86,30.41,10.0,Calm,Calm,-,N/A,,Clear,0,2013-11-25 11:35:00
6:55 AM,23.0,20.5,90,30.42,10.0,Calm,Calm,-,N/A,,Clear,0,2013-11-25 11:55:00
7:15 AM,22.8,20.5,91,30.42,10.0,Calm,Calm,-,N/A,,Clear,0,2013-11-25 12:15:00
7:35 AM,23.2,20.8,91,30.42,10.0,Calm,Calm,-,N/A,,Clear,0,2013-11-25 12:35:00
7:55 AM,24.4,21.0,87,30.42,10.0,Calm,Calm,-,N/A,,Clear,0,2013-11-25 12:55:00
8:15 AM,25.5,21.4,84,30.43,10.0,Calm,Calm,-,N/A,,Clear,0,2013-11-25 13:15:00
8:35 AM,26.1,21.7,84,30.42,10.0,Calm,Calm,-,N/A,,Clear,0,2013-11-25 13:35:00
8:55 AM,26.8,21.7,81,30.42,10.0,Calm,Calm,-,N/A,,Clear,0,2013-11-25 13:55:00
9:15 AM,27.9,21.9,78,30.43,10.0,Calm,Calm,-,N/A,,Clear,0,2013-11-25 14:15:00
9:35 AM,29.1,21.2,72,30.43,10.0,Calm,Calm,-,N/A,,Clear,0,2013-11-25 14:35:00
9:55 AM,31.8,20.8,64,30.41,10.0,Calm,Calm,-,N/A,,Clear,0,2013-11-25 14:55:00
10:15 AM,32.0,19.9,61,30.39,10.0,Calm,Calm,-,N/A,,Clear,0,2013-11-25 15:15:00
10:35 AM,36.0,19.2,51,30.40,10.0,Calm,Calm,-,N/A,,Clear,0,2013-11-25 15:35:00
10:55 AM,37.0,17.1,44,30.40,10.0,Calm,Calm,-,N/A,,Clear,0,2013-11-25 15:55:00
11:15 AM,37.8,16.9,43,30.40,10.0,Calm,Calm,-,N/A,,Clear,0,2013-11-25 16:15:00
11:35 AM,38.7,14.0,37,30.39,10.0,Calm,Calm,-,N/A,,Clear,0,2013-11-25 16:35:00
11:55 AM,40.1,15.8,37,30.37,10.0,Calm,Calm,-,N/A,,Clear,0,2013-11-25 16:55:00
12:15 PM,40.8,15.4,36,30.35,10.0,Calm,Calm,-,N/A,,Clear,0,2013-11-25 17:15:00
12:35 PM,42.1,17.1,37,30.34,10.0,Calm,Calm,-,N/A,,Scattered Clouds,0,2013-11-25 17:35:00
12:55 PM,43.2,13.3,30,30.34,10.0,Calm,Calm,-,N/A,,Overcast,0,2013-11-25 17:55:00
1:15 PM,44.6,12.2,27,30.32,10.0,Calm,Calm,-,N/A,,Overcast,0,2013-11-25 18:15:00
1:35 PM,44.6,8.6,23,30.31,10.0,Calm,Calm,-,N/A,,Overcast,0,2013-11-25 18:35:00
1:55 PM,45.3,6.3,20,30.31,10.0,West,3.5,-,N/A,,Mostly Cloudy,270,2013-11-25 18:55:00
2:15 PM,45.5,6.3,20,30.29,10.0,Calm,Calm,-,N/A,,Scattered Clouds,0,2013-11-25 19:15:00
2:35 PM,45.9,7.2,21,30.29,10.0,WNW,3.5,-,N/A,,Mostly Cloudy,300,2013-11-25 19:35:00
2:55 PM,46.8,7.9,21,30.28,10.0,WNW,3.5,-,N/A,,Overcast,290,2013-11-25 19:55:00
3:15 PM,47.1,9.9,22,30.28,10.0,WNW,3.5,-,N/A,,Overcast,300,2013-11-25 20:15:00
3:35 PM,46.4,8.6,22,30.28,10.0,Calm,Calm,-,N/A,,Overcast,0,2013-11-25 20:35:00
3:55 PM,46.4,16.3,30,30.27,10.0,Calm,Calm,-,N/A,,Overcast,0,2013-11-25 20:55:00
4:15 PM,46.0,19.6,35,30.28,10.0,Calm,Calm,-,N/A,,Overcast,0,2013-11-25 21:15:00
4:35 PM,45.7,23.0,41,30.28,10.0,West,3.5,-,N/A,,Overcast,270,2013-11-25 21:35:00
4:55 PM,45.5,24.3,43,30.28,10.0,Calm,Calm,-,N/A,,Overcast,0,2013-11-25 21:55:00
5:15 PM,45.0,24.1,44,30.27,7.0,Calm,Calm,-,N/A,,Overcast,0,2013-11-25 22:15:00
5:35 PM,43.7,25.9,50,30.28,10.0,Calm,Calm,-,N/A,,Overcast,0,2013-11-25 22:35:00
5:55 PM,42.3,28.9,59,30.27,10.0,Calm,Calm,-,N/A,,Overcast,0,2013-11-25 22:55:00
6:15 PM,42.1,29.5,61,30.27,10.0,Calm,Calm,-,N/A,,Overcast,0,2013-11-25 23:15:00
6:35 PM,42.8,28.9,58,30.28,10.0,Calm,Calm,-,N/A,,Overcast,0,2013-11-25 23:35:00
6:55 PM,42.6,28.2,57,30.28,10.0,Calm,Calm,-,N/A,,Overcast,0,2013-11-25 23:55:00
7:15 PM,42.3,29.7,61,30.27,10.0,NNE,3.5,-,N/A,,Light Drizzle,20,2013-11-26 00:15:00
7:35 PM,41.4,30.9,66,30.27,10.0,Calm,Calm,-,N/A,,Overcast,0,2013-11-26 00:35:00
7:55 PM,41.5,28.9,61,30.26,10.0,Calm,Calm,-,N/A,,Light Drizzle,0,2013-11-26 00:55:00
8:15 PM,41.7,28.8,60,30.26,10.0,Calm,Calm,-,N/A,Rain,Rain,0,2013-11-26 01:15:00
8:35 PM,41.0,30.9,67,30.26,10.0,Calm,Calm,-,N/A,Rain,Light Rain,0,2013-11-26 01:35:00
8:55 PM,39.0,34.3,83,30.26,10.0,Calm,Calm,-,N/A,,Light Drizzle,0,2013-11-26 01:55:00
9:15 PM,38.5,33.4,82,30.24,10.0,Calm,Calm,-,N/A,Rain,Light Rain,0,2013-11-26 02:15:00
9:35 PM,38.5,34.3,85,30.24,10.0,Calm,Calm,-,N/A,Rain,Light Rain,0,2013-11-26 02:35:00
9:55 PM,37.6,34.3,88,30.24,10.0,Calm,Calm,-,N/A,Rain,Rain,0,2013-11-26 02:55:00
10:15 PM,37.8,35.2,91,30.23,10.0,West,5.8,-,N/A,Rain,Light Rain,280,2013-11-26 03:15:00
10:35 PM,37.6,35.2,91,30.21,10.0,WNW,4.6,-,N/A,Rain,Light Rain,300,2013-11-26 03:35:00
10:55 PM,37.8,35.4,91,30.21,10.0,East,3.5,-,N/A,Rain,Light Rain,90,2013-11-26 03:55:00
11:15 PM,37.4,35.6,93,30.20,7.0,Calm,Calm,-,N/A,Rain,Rain,0,2013-11-26 04:15:00
11:35 PM,37.4,35.8,94,30.20,7.0,Calm,Calm,-,N/A,Rain,Light Rain,0,2013-11-26 04:35:00
11:55 PM,37.4,36.1,95,30.18,5.0,Calm,Calm,-,N/A,Rain,Rain,0,2013-11-26 04:55:00